Location: Utrecht
(52.0907°N, 5.1214°E)
Time: 08:16:21
(UTC+02:00)

RS-44 - Visible Passes

Search period start: 28 June 2022 00:00
Search period end: 08 July 2022 00:00
Orbit: 1175 x 1509 km, 82.5° (Epoch: 27 June)

Date Brightness Start Highest point End Pass type
(mag) Time Alt. Az. Time Alt. Az. Time Alt. Az.
28 Jun ? 01:47:54 10° WNW 01:52:06 14° NW 01:56:26 10° N visible
29 Jun ? 00:12:47 10° WSW 00:20:02 32° WNW 00:27:45 10° N visible
29 Jun ? 02:15:24 10° NW 02:17:11 11° NNW 02:18:58 10° NNW visible
29 Jun ? 22:41:13 10° SSW 22:49:26 78° WNW 22:58:16 10° N visible
30 Jun ? 00:38:04 10° WSW 00:44:35 24° NW 00:51:23 10° N visible
30 Jun ? 23:05:21 10° SSW 23:13:27 57° WNW 23:22:07 10° N visible
01 Jul ? 01:03:53 10° W 01:09:18 18° NW 01:14:55 10° N visible
01 Jul ? 23:29:53 10° SW 23:37:39 41° WNW 23:45:54 10° N visible
02 Jul ? 01:30:22 10° WNW 01:34:14 13° NW 01:38:12 10° N visible
02 Jul ? 23:54:50 10° WSW 00:02:02 30° WNW 00:09:37 10° N visible
03 Jul ? 01:58:46 10° NNW 01:59:22 10° NNW 01:59:58 10° NNW visible
04 Jul ? 00:20:15 10° W 00:26:38 22° NW 00:33:15 10° N visible
04 Jul ? 22:47:13 10° SW 22:55:23 52° WNW 23:04:01 10° N visible
05 Jul ? 00:46:13 10° W 00:51:25 17° NW 00:56:45 10° N visible
05 Jul ? 23:11:51 10° SW 23:19:37 38° WNW 23:27:47 10° N visible
06 Jul ? 01:12:56 10° WNW 01:16:24 13° NW 01:19:54 10° N visible
06 Jul ? 23:36:56 10° WSW 23:44:04 28° NW 23:51:29 10° N visible
